Wind_Speed
42 42 44 46 46 44 42 41 43 44 43 42 40 39 38 37 36 36 37 38 38 38 37 37 37 36 36 36 36 36 36 35 34 33 32 31 31 31 31 32 32 32
44 43 43 44 45 45 43 42 44 45 45 44 43 43 44 43 41 40 40 41 41 41 40 39 39 38 37 36 36 37 37 38 38 37 36 35 34 34 33 33 33 33
47 48 47 46 44 45 45 44 44 44 45 46 47 48 47 47 46 45 44 44 43 43 42 41 41 40 39 38 38 38 38 38 39 39 40 39 39 38 37 36 36 35
51 52 52 51 49 50 49 48 47 45 44 45 47 49 48 48 48 48 48 47 45 44 43 43 43 42 41 40 40 40 39 39 40 40 41 41 42 42 42 41 40 39
55 56 56 55 55 56 57 56 54 51 48 47 47 48 47 46 47 48 48 48 47 47 47 47 47 46 45 43 42 42 42 42 41 41 42 43 43 44 44 44 44 43
58 59 59 57 55 56 59 61 61 58 55 53 52 51 49 48 49 50 50 50 50 50 50 50 50 49 49 47 46 44 44 44 43 43 43 43 44 45 46 46 46 46
59 60 60 57 54 54 57 60 62 61 59 58 58 57 56 56 56 56 56 57 56 54 53 53 53 52 52 51 50 48 46 45 45 45 45 45 44 45 46 47 48 48
60 60 60 59 57 58 58 58 60 61 60 60 60 60 60 62 62 62 62 62 61 60 58 58 57 56 55 54 53 53 51 50 49 49 49 48 47 45 46 46 47 48
63 62 61 61 62 62 61 61 61 62 63 63 63 63 64 64 65 65 66 65 65 66 66 65 63 61 59 57 56 55 55 56 55 54 52 51 49 47 45 44 45 47
64 63 62 63 63 64 65 65 64 63 63 63 64 65 66 67 68 69 69 69 69 70 69 65 63 63 62 60 59 58 57 57 57 57 55 53 51 49 48 48 50 52
61 61 61 61 61 62 63 63 63 63 62 62 61 62 64 66 67 68 68 68 68 67 66 62 59 60 60 59 59 59 59 59 59 59 58 56 54 53 54 56 58 60
58 59 59 58 58 58 58 58 58 58 57 56 56 55 57 60 62 61 61 58 53 49 52 54 52 52 55 56 58 60 60 60 61 61 61 61 61 61 63 65 65 65
56 57 57 57 55 54 52 52 53 53 51 51 51 50 54 58 58 57 56 53 46 42 46 51 50 51 52 53 56 59 60 60 60 60 61 63 65 67 68 69 68 66
56 56 56 57 55 53 52 50 52 53 52 50 49 50 54 58 58 56 55 54 53 55 58 61 62 61 57 53 52 53 56 58 58 59 60 62 65 67 68 68 66 63
56 55 56 56 56 56 55 53 53 55 54 51 50 51 54 57 58 59 58 58 60 63 65 67 69 67 62 56 53 52 54 56 57 58 59 60 62 63 64 64 62 60
57 57 57 57 57 58 58 56 55 57 59 58 58 58 58 59 61 61 63 65 67 67 67 68 69 67 63 60 58 57 58 58 58 58 59 59 59 59 60 61 61 60
60 59 59 60 60 60 60 60 59 61 63 65 66 66 66 67 67 67 67 68 68 68 69 69 68 67 65 64 63 62 62 62 62 63 62 61 60 60 60 60 60 60
62 62 62 63 63 64 64 64 64 65 67 69 70 71 71 71 70 69 68 67 66 67 68 69 70 69 68 67 67 67 67 68 68 67 65 64 63 63 62 62 61 61
64 64 65 65 66 66 66 67 67 68 69 71 71 72 72 72 71 70 69 68 68 69 69 70 71 71 71 72 72 72 72 72 70 68 67 65 65 64 64 63 62 62
66 67 67 67 68 68 68 68 69 70 71 72 72 72 72 72 72 71 71 71 71 72 73 74 74 75 76 76 76 75 73 72 70 68 67 66 66 65 65 64 64 63
68 68 69 69 69 69 70 70 71 71 72 72 73 72 72 72 72 72 72 72 72 73 74 75 76 76 77 76 75 74 72 70 69 68 67 67 67 66 66 66 66 66
67 68 68 68 69 69 70 70 71 71 72 72 72 72 71 72 72 72 72 72 72 73 73 74 75 75 75 75 73 72 70 69 68 68 68 68 68 68 69 69 69 69
63 64 65 66 67 68 69 69 70 71 71 71 70 70 70 70 71 71 72 72 72 72 73 74 74 74 74 74 72 71 70 69 68 68 68 69 69 70 70 71 71 72
59 60 62 64 66 67 68 68 69 70 70 70 69 68 68 68 69 70 71 71 71 72 73 73 74 74 74 73 72 71 70 70 69 69 69 70 71 71 72 73 73 74
60 61 62 64 65 66 67 68 68 69 69 68 68 67 66 67 67 68 69 70 71 72 72 73 73 73 73 72 72 72 72 72 72 72 72 72 72 73 74 75 76 76
63 63 64 64 65 65 66 66 67 68 68 68 68 68 67 67 67 68 69 70 70 71 72 72 72 73 73 73 73 74 74 74 74 74 74 74 74 75 76 77 78 79
Wind_Direction
269 274 278 282 283 282 280 274 269 269 270 270 269 268 267 269 272 274 278 281 283 285 285 285 285 284 282 281 280 279 278 277 276 276 275 273 272 270 270 270 269 268
265 267 271 278 283 283 281 277 271 269 270 271 271 271 271 271 272 273 276 279 280 281 282 283 284 284 282 280 278 277 276 275 275 274 274 273 272 271 270 268 267 267
263 263 264 270 275 277 279 278 274 271 272 273 273 274 274 273 274 274 276 278 279 279 280 281 281 282 282 280 277 275 274 272 272 271 272 272 272 272 272 271 269 267
263 262 263 265 267 270 273 275 274 272 274 274 273 274 275 274 274 275 276 278 279 278 278 279 278 278 279 279 278 275 273 271 270 269 269 269 269 270 270 270 270 269
260 261 263 265 266 266 267 269 270 271 273 275 273 272 272 273 274 276 277 279 280 279 280 281 280 278 277 277 278 277 274 271 269 269 268 266 266 266 267 267 268 268
258 259 262 265 265 263 264 265 265 266 269 272 272 270 269 270 272 273 275 277 279 280 281 282 280 278 277 277 277 277 275 272 269 267 266 266 265 264 264 264 265 265
256 257 259 261 261 260 261 263 265 265 266 268 269 268 267 267 269 271 272 274 276 277 279 280 278 277 277 277 276 276 275 273 271 269 266 264 264 264 264 264 264 265
257 256 257 259 260 261 263 266 268 269 268 268 268 268 267 267 267 270 271 272 273 274 275 276 275 275 275 275 275 275 274 272 273 273 270 264 261 262 262 263 265 266
259 259 258 259 261 263 265 268 270 271 271 271 270 268 268 267 267 267 268 270 271 272 275 275 273 272 272 273 273 273 273 273 273 275 274 267 261 260 259 260 265 268
260 261 261 261 262 263 266 269 270 271 272 273 273 271 270 269 268 268 269 270 272 273 275 273 271 270 270 270 270 271 271 272 272 274 273 268 262 259 257 260 268 272
258 259 261 262 263 263 265 268 269 271 272 273 275 276 275 274 272 273 274 275 275 275 273 270 269 268 267 267 267 268 268 269 270 271 271 268 264 261 262 266 271 275
256 258 259 261 262 263 265 267 269 271 272 272 274 275 276 276 276 277 277 277 278 279 276 275 271 262 261 264 266 266 267 267 267 268 267 266 265 265 267 270 273 275
254 256 258 259 260 262 265 267 268 268 267 266 266 267 269 272 275 276 275 273 273 271 269 273 270 262 263 268 267 266 267 267 267 267 267 267 267 268 270 273 275 275
253 255 257 258 258 259 261 262 263 263 261 259 259 260 263 267 269 269 269 269 271 269 264 265 267 270 274 276 270 267 266 266 267 268 269 270 272 273 274 274 275 274
254 255 257 259 259 259 259 259 258 258 257 255 255 256 259 262 264 264 263 266 271 271 267 266 269 274 277 277 273 270 268 269 271 271 271 272 273 273 274 274 273 273
255 255 256 258 259 259 260 259 257 256 255 255 255 256 257 260 262 262 263 266 269 268 266 267 270 273 274 274 274 273 273 275 276 276 275 273 272 271 271 272 272 272
254 255 255 255 256 257 258 258 256 255 255 256 258 259 259 261 263 263 264 266 267 265 264 264 266 269 270 271 273 274 275 276 278 278 277 274 272 271 271 271 271 271
254 254 254 254 255 255 256 256 256 255 256 257 258 259 261 262 263 263 264 263 262 261 262 262 264 266 268 269 271 273 274 276 277 277 276 274 273 272 271 271 270 270
254 254 254 254 255 255 256 257 257 257 257 258 259 260 261 262 262 262 262 260 259 259 259 261 262 264 266 268 270 271 273 274 275 275 274 274 273 272 272 271 270 269
256 256 255 255 256 256 256 257 258 258 259 259 260 260 261 261 262 262 261 260 259 259 259 260 261 263 265 267 269 270 271 272 273 273 273 273 273 273 272 272 271 270
257 257 257 257 257 257 257 257 258 258 259 260 260 261 262 262 262 262 262 261 261 261 261 262 262 264 265 266 268 269 270 271 272 272 273 273 273 273 273 273 272 272
258 258 259 259 259 259 259 259 259 259 259 260 260 260 261 262 262 262 262 262 262 262 262 262 263 264 265 266 267 268 269 270 271 272 273 273 273 273 273 273 273 272
259 260 260 261 261 261 261 261 261 261 261 261 260 260 260 260 261 261 262 262 262 262 262 262 262 263 263 265 266 267 268 269 270 271 271 272 272 272 272 272 272 272
260 260 260 259 259 260 260 260 260 260 260 261 261 261 260 260 261 261 262 263 263 263 263 262 262 263 263 264 265 266 267 268 269 270 270 270 271 271 271 271 271 272
262 260 259 258 257 257 258 258 259 259 260 261 261 261 261 261 262 262 262 262 262 262 263 263 263 263 264 264 266 267 267 268 268 269 269 269 269 269 270 270 271 271
262 261 260 259 258 257 257 258 258 259 260 261 262 262 263 263 262 262 262 262 261 261 262 262 262 262 263 264 265 266 267 268 269 269 269 269 269 269 270 270 270 271
Height
10566 10565 10562 10560 10560 10563 10567 10569 10571 10572 10573 10573 10574 10575 10576 10577 10578 10578 10578 10579 10579 10578 10578 10578 10577 10576 10576 10575 10575 10575 10575 10575 10575 10576 10576 10577 10578 10578 10579 10580 10581 10581
10562 10562 10560 10558 10558 10558 10561 10563 10565 10567 10567 10568 10569 10570 10571 10572 10573 10573 10574 10574 10575 10575 10575 10575 10574 10574 10573 10572 10572 10572 10571 10571 10571 10571 10572 10573 10573 10574 10575 10576 10577 10577
10558 10557 10556 10556 10556 10555 10556 10557 10558 10560 10562 10563 10564 10564 10566 10566 10567 10567 10568 10569 10570 10571 10571 10571 10571 10570 10570 10569 10568 10568 10567 10567 10567 10567 10568 10568 10569 10570 10571 10571 10572 10573
10552 10552 10552 10552 10552 10551 10552 10553 10553 10554 10555 10557 10558 10559 10559 10559 10559 10560 10561 10563 10564 10565 10566 10567 10566 10566 10565 10565 10564 10564 10563 10562 10562 10563 10563 10564 10564 10565 10566 10567 10567 10568
10546 10546 10546 10547 10547 10546 10546 10547 10548 10549 10550 10551 10552 10553 10553 10552 10552 10553 10554 10556 10557 10558 10560 10561 10561 10561 10561 10561 10560 10560 10559 10558 10558 10558 10558 10558 10559 10559 10560 10561 10562 10563
10540 10540 10540 10541 10542 10540 10539 10539 10540 10542 10544 10545 10545 10546 10546 10546 10546 10546 10547 10549 10550 10551 10552 10553 10554 10554 10555 10555 10555 10555 10555 10554 10553 10553 10553 10553 10553 10553 10554 10555 10556 10557
10534 10535 10535 10535 10535 10534 10533 10531 10531 10534 10537 10538 10538 10539 10540 10539 10539 10540 10540 10542 10543 10544 10545 10545 10546 10547 10547 10548 10549 10549 10549 10549 10549 10548 10548 10548 10548 10548 10548 10549 10550 10550
10527 10528 10528 10528 10528 10528 10527 10526 10525 10526 10528 10530 10531 10532 10532 10532 10533 10533 10533 10534 10535 10536 10538 10538 10538 10539 10540 10540 10541 10541 10542 10542 10542 10543 10543 10543 10543 10543 10543 10544 10544 10545
10518 10520 10521 10521 10522 10522 10522 10522 10520 10520 10520 10521 10522 10523 10523 10525 10526 10525 10525 10526 10527 10528 10531 10532 10531 10532 10532 10532 10533 10533 10534 10534 10534 10535 10536 10537 10537 10537 10537 10538 10538 10539
10511 10512 10513 10515 10515 10516 10515 10516 10515 10515 10515 10513 10512 10511 10513 10514 10515 10517 10519 10520 10521 10521 10523 10524 10524 10524 10524 10524 10524 10525 10525 10526 10526 10527 10528 10529 10529 10530 10530 10530 10531 10533
10506 10506 10507 10508 10509 10509 10509 10509 10509 10509 10508 10506 10504 10503 10502 10503 10505 10508 10510 10511 10512 10512 10513 10516 10518 10517 10515 10515 10515 10516 10517 10518 10518 10519 10520 10521 10521 10522 10522 10523 10524 10525
10501 10501 10502 10502 10503 10503 10502 10502 10503 10502 10501 10500 10499 10497 10494 10493 10496 10500 10501 10501 10502 10502 10500 10503 10508 10509 10506 10506 10507 10508 10509 10509 10510 10511 10512 10512 10513 10513 10514 10515 10517 10518
10496 10496 10496 10496 10497 10497 10495 10496 10496 10495 10494 10493 10493 10492 10488 10488 10490 10493 10494 10496 10498 10496 10492 10491 10495 10499 10500 10500 10500 10500 10501 10501 10502 10503 10504 10504 10504 10505 10506 10507 10508 10510
10490 10490 10489 10488 10491 10491 10490 10490 10489 10487 10486 10487 10486 10485 10484 10484 10485 10486 10487 10489 10490 10489 10486 10483 10484 10488 10492 10494 10494 10494 10494 10495 10496 10497 10498 10498 10497 10497 10497 10498 10499 10501
10482 10483 10482 10481 10482 10483 10482 10484 10483 10478 10477 10478 10478 10478 10479 10479 10479 10480 10480 10482 10481 10479 10477 10476 10476 10479 10482 10484 10485 10486 10486 10487 10489 10491 10492 10492 10491 10490 10489 10489 10490 10492
10474 10476 10475 10474 10474 10474 10474 10476 10476 10473 10470 10470 10470 10471 10472 10473 10473 10474 10474 10474 10474 10472 10469 10468 10469 10470 10473 10475 10476 10477 10478 10479 10481 10482 10483 10484 10484 10483 10482 10481 10482 10483
10467 10468 10468 10467 10467 10467 10467 10468 10468 10467 10465 10464 10464 10465 10465 10466 10467 10468 10468 10467 10467 10465 10463 10462 10462 10463 10465 10466 10467 10468 10470 10471 10472 10473 10474 10475 10475 10475 10475 10475 10475 10475
10459 10460 10460 10459 10459 10459 10459 10460 10460 10460 10460 10459 10458 10458 10458 10459 10460 10460 10461 10460 10460 10459 10457 10456 10456 10457 10458 10459 10460 10461 10463 10464 10464 10464 10465 10466 10466 10466 10467 10467 10467 10467
10449 10450 10450 10451 10451 10451 10451 10452 10452 10452 10452 10452 10451 10451 10451 10452 10452 10453 10454 10454 10453 10452 10452 10451 10451 10451 10452 10453 10453 10455 10456 10456 10456 10456 10457 10457 10457 10457 10458 10458 10458 10459
10439 10440 10441 10441 10442 10443 10443 10444 10443 10443 10443 10443 10443 10444 10444 10444 10444 10445 10445 10446 10446 10446 10445 10445 10445 10445 10445 10446 10446 10447 10449 10449 10449 10449 10449 10449 10449 10449 10449 10449 10449 10450
10429 10430 10431 10432 10433 10434 10434 10434 10434 10434 10435 10435 10435 10435 10436 10436 10436 10436 10436 10437 10437 10437 10438 10438 10437 10437 10437 10438 10439 10440 10441 10441 10441 10441 10441 10441 10441 10440 10440 10440 10440 10440
10419 10421 10422 10423 10424 10424 10424 10424 10425 10425 10425 10426 10426 10427 10428 10428 10428 10428 10428 10428 10428 10429 10429 10429 10429 10429 10429 10429 10430 10431 10432 10433 10433 10433 10433 10433 10432 10432 10431 10431 10431 10430
10410 10411 10412 10413 10413 10413 10413 10414 10414 10414 10415 10416 10416 10418 10419 10419 10418 10418 10418 10419 10420 10420 10420 10420 10420 10421 10421 10421 10422 10423 10424 10425 10425 10426 10425 10424 10424 10423 10422 10422 10421 10421
10400 10401 10401 10402 10402 10402 10402 10403 10403 10403 10404 10406 10407 10408 10409 10410 10409 10410 10410 10410 10411 10411 10411 10411 10411 10412 10413 10413 10414 10415 10416 10417 10417 10417 10417 10417 10415 10414 10413 10413 10412 10412
10388 10388 10388 10389 10390 10391 10392 10392 10392 10393 10394 10396 10398 10399 10400 10401 10401 10401 10401 10401 10401 10401 10401 10402 10403 10403 10404 10405 10405 10406 10406 10407 10408 10408 10408 10408 10407 10406 10405 10404 10403 10402
10376 10377 10377 10378 10380 10381 10382 10383 10383 10384 10385 10387 10389 10390 10391 10391 10392 10392 10391 10391 10391 10391 10392 10393 10394 10395 10396 10396 10396 10396 10396 10396 10397 10398 10398 10398 10398 10397 10396 10395 10394 10393